Location: Copley
(41.0989°N, 81.6446°W)
Time: 18:40:31
(UTC+00:00)

Daily predictions for brighter satellites

Satellite Brightness Start Highest point End
(mag) Time Altitude Azimuth Time Altitude Azimuth Time Altitude Azimuth
Cosmos 1400 Rocket 3.0 12:00:02 10° SSW 12:03:57 49° WNW 12:07:57 10° N
H-2A R/B 4.1 12:01:40 10° NNW 12:04:07 17° WNW 12:06:34 10° WSW
Nadezhda 4 Rocket 4.4 12:01:31 10° NNW 12:07:10 40° W 12:12:47 10° SSW
Cosmos 1328 3.7 12:03:40 10° NNW 12:07:34 64° W 12:11:26 10° S
Cosmos 1634 Rocket 4.0 12:04:53 10° SSW 12:11:03 77° W 12:17:14 10° N
Cosmos 1602 Rocket 3.8 12:06:59 10° NNW 12:11:18 50° W 12:15:37 10° SSW
SL-4 R/B 2.9 12:08:08 10° SW 12:11:49 51° SE 12:15:50 10° ENE
SL-16 R/B 2.5 12:08:25 10° SSW 12:14:02 75° ESE 12:19:43 10° NNE
ATLAS CENTAUR R/B 1.5 12:10:50 10° SSW 12:14:31 67° ESE 12:18:10 10° NE
Cosmos 2369 Rocket 4.3 12:10:32 10° N 12:14:49 22° NE 12:19:02 10° ESE
PAYLOAD B 4.4 12:11:16 10° N 12:16:41 54° WNW 12:22:06 10° SSW
CZ-4B R/B 3.3 12:11:31 10° N 12:17:12 76° WNW 12:22:47 10° SSW
Cosmos 2278 Rocket 2.8 12:13:40 10° NW 12:18:49 36° WSW 12:23:56 10° S
DMSP B5D2-2 4.1 12:14:37 10° S 12:19:51 77° WSW 12:25:09 10° NNW
CZ-2C R/B 4.5 12:16:30 10° NNE 12:22:11 51° E 12:27:45 10° S
Cosmos 2279 Rocket 4.3 22:48:25 10° N 22:54:23 43° ENE 23:00:17 10° SSE
MOS 1 Rocket 4.3 22:53:47 10° NE 22:57:08 22° E 23:00:27 10° SE
Abrixas rocket 3.0 22:55:47 10° WNW 22:58:19 42° SW 23:00:50 10° SE
Envisat 4.5 22:55:05 10° S 22:59:54 43° W 23:04:44 10° NNW
Cosmos 1354 Rocket 4.2 22:54:46 10° SSW 23:00:05 80° WNW 23:05:27 10° NNE
Meteor 1-24 Rocket 3.6 22:56:35 10° S 23:01:53 62° E 23:07:07 10° NNE
X-37B 2.3 23:00:27 10° SSW 23:02:58 22° SE 23:05:32 10° E
Cosmos 1943 3.2 22:58:33 10° NNW 23:04:14 71° ENE 23:09:51 10° SSE
ISS -2.3 23:03:58 10° S 23:06:44 24° SE 23:09:26 11° E
Cosmos 1634 Rocket 4.1 23:00:52 10° N 23:07:09 88° E 23:13:26 10° S
Feng Yun 1-1 Rocket 4.5 23:03:01 10° SE 23:08:08 44° ENE 23:13:20 10° N
YAOGAN 1 3.9 23:06:04 10° ESE 23:08:58 18° ENE 23:11:53 10° NNE
Cosmos 1892 Rocket 4.0 23:05:01 10° SSE 23:09:02 38° E 23:13:03 10° NNE
Cosmos 1606 Rocket 3.6 23:05:49 10° N 23:10:09 55° E 23:14:28 10° SSE
CZ-2C R/B 4.5 23:09:42 10° ENE 23:11:13 11° E 23:12:43 10° ESE
H-2A R/B 2.5 23:07:29 10° N 23:11:55 66° WNW 23:16:13 10° SSW
ATLAS 3B R/B 3.2 23:10:54 10° NW 23:17:53 70° WSW 23:25:07 10° SSE
Cosmos 1626 3.8 23:17:57 10° SW 23:21:21 34° WNW 23:24:46 10° N
IRS-1C Rocket 4.4 23:18:26 10° SE 23:23:23 44° ENE 23:28:21 10° N
Helios 1A Rocket 4.2 23:21:54 10° ESE 23:24:55 20° ENE 23:27:57 10° NNE
Cosmos 2228 3.0 23:21:04 10° N 23:25:21 88° W 23:29:39 10° S
SKYMED 2 3.6 23:21:35 10° NNE 23:25:54 63° E 23:30:11 10° S
CZ-2D R/B 3.4 23:22:43 10° SSE 23:26:26 48° ENE 23:30:10 10° N
SJ 16-02 2.2 23:24:39 10° SSE 23:28:27 29° E 23:31:28 14° NE
YAOGAN 3 4.5 23:25:55 10° SSE 23:30:14 70° ENE 23:34:35 10° N
Lacrosse 5 3.0 23:26:22 10° NNW 23:30:36 26° NNE 23:33:13 17° ENE
Cosmos 1844 Rocket 3.0 23:30:16 10° S 23:35:36 44° ESE 23:40:35 12° NE
CZ-4B R/B 1.5 23:33:20 10° N 23:36:43 74° WNW 23:40:00 10° SSW
Cosmos 2058 Rocket 3.1 23:35:28 10° N 23:39:54 56° E 23:44:20 10° SSE
CZ-2C R/B 3.1 23:36:32 10° SSE 23:41:42 68° ENE 23:47:11 10° N
SAR-Lupe-4 3.9 23:39:40 15° NNE 23:42:25 42° E 23:45:49 10° S
CZ-4C R/B 4.3 23:39:42 10° WNW 23:43:18 18° NNW 23:47:19 10° NNE
Okean 1-7 Rocket 3.6 23:42:59 10° S 23:47:28 69° E 23:52:01 10° NNE
H-2A R/B 2.2 23:44:21 10° SE 23:49:02 45° ENE 23:53:51 10° N
BREEZE-M DEB (TANK) 3.9 23:46:42 10° W 23:49:16 29° SSW 23:52:59 10° SSE
Nadezhda 4 Rocket 3.9 23:44:33 10° S 23:50:44 65° E 23:56:54 10° NNE
SAR-Lupe-1 4.0 23:50:57 18° NNE 23:53:27 59° E 23:56:58 10° S
